Regional Weather Roundup
Issued by NWS

Home | Current Version | Previous Version | Text Only | Print | Product List | Glossary On
Versions: 1 2 3 4 5 6 7 8 9 10 11 12 13 14 15 16 17 18 19 20 21 22 23 24 25 26 27 28 29 30 31 32 33 34 35 36 37 38 39 40 41 42 43 44 45 46 47 48 49 50
000
ASUS44 KMEG 270210
RWRTN
TENNESSEE HOURLY STATE WEATHER ROUNDUP
NATIONAL WEATHER SERVICE MEMPHIS TN
900 PM CDT TUE MAY 26 2015

TNZ002-004-019-021-049-052-054-088>092-270300-
WEST TENNESSEE

CITY           SKY/WX    TMP DP  RH WIND       PRES   REMARKS
MEMPHIS INTL   PTCLDY    74  65  73 S3        30.07R
NWS MEMPHIS      N/A     74 N/A N/A MISG        N/A
JACKSON        CLEAR     69  63  81 CALM      30.07R
DYERSBURG      CLEAR     70  54  56 CALM      30.06R
PARIS          CLEAR     66  63  88 W3        30.07R
LEXINGTON      MOCLDY    72  64  78 S3        30.07R
$$

TNZ008-025-027-028-033-062-065-066-270300-
NORTH MIDDLE TENNESSEE

CITY           SKY/WX    TMP DP  RH WIND       PRES   REMARKS
NASHVILLE      MOCLDY    71  67  87 S3        30.09R
CLARKSVILLE    CLEAR     72  65  78 SW5       30.06R
SMYRNA         MOCLDY    73  68  84 SW5       30.10R
COOKEVILLE     CLEAR     70  66  88 S7        30.11R
CROSSVILLE     CLOUDY    69  65  86 S7        30.17R
$$

TNZ061-075-076-078-094-096-097-270300-
SOUTH MIDDLE TENNESSEE

CITY           SKY/WX    TMP DP  RH WIND       PRES   REMARKS
FAYETTEVILLE   PTCLDY   N/A N/A N/A MISG      30.13R
TULLAHOMA      CLEAR     72  66  83 S5        30.14R
WINCHESTER     CLEAR     72  66  83 VRB5      30.15R
MCMINNVILLE    PTCLDY    73  70  88 CALM      30.13R
COLUMBIA       CLEAR     72  68  88 S3        30.09R
SHELBYVILLE    CLEAR     72  68  88 S5        30.13R
$$

TNZ017-018-042-046-047-270300-
NORTHEAST TENNESSEE

CITY           SKY/WX    TMP DP  RH WIND       PRES   REMARKS
TRI CITIES     CLOUDY    76  63  64 S3        30.17R
ELIZABETHTON   PTCLDY    68  63  83 CALM      30.18R
$$

TNZ012-013-036-069-073-074-270300-
CENTRAL EAST TENNESSEE

CITY           SKY/WX    TMP DP  RH WIND       PRES   REMARKS
KNOXVILLE      CLOUDY    73  61  65 SW7       30.15R
OAK RIDGE      CLOUDY    72  69  90 CALM      30.18R
GATLINBURG     MOCLDY    72  59  64 CALM      30.16R
MORRISTOWN     CLEAR     75  64  69 SW7       30.18R
$$

TNZ083-085-099-270300-
SOUTHEAST TENNESSEE

CITY           SKY/WX    TMP DP  RH WIND       PRES   REMARKS
CHATTANOOGA    CLOUDY    69  66  90 SE6       30.16R
$$

SKY/WX REPORTED AS FAIR MEANS FEW OR NO CLOUDS BELOW
12 THOUSAND FEET.



USA.gov is the U.S. government's official web portal to all federal, state and local government web resources and services.